sat.trackr.live / text

‹ back to catalog

GAOFEN-1

NORAD 39150 · 2013-018A

PAYLOAD ACTIVE UNKNOWN

§ Identity

Operator
Country
PRC
Launch date
2013-04-26
Launch site
JSC
Launch vehicle
Mass (kg)
RCS (m²)
2.59

Purposes: earth_obs

External: N2YO · Heavens-Above · Gunter

§ Orbital elements

Epoch: 2026-09-20T05:00:13.027104Z

Period
97.53 min
Inclination
97.9010°
Eccentricity
0.0016305
Mean motion
14.76540058 rev/d
Perigee alt
628.8 km
Apogee alt
651.7 km
Semi-major
7,018.4 km
B*
5.8347e-6
RAAN
333.3011°
Arg perigee
324.1354°
Mean anomaly
35.8760°
Rev number
72,226

§ Raw data

GAOFEN-11 39150U 13018A   26263.20848411 -.00000010  00000+0  58347-5 0  99912 39150  97.9010 333.3011 0016305 324.1354  35.8760 14.76540058722265

JSON: /api/v1/satellites/39150 · /tle

For live sub-satellite position, see the globe view (requires WebGL).

§ Visibility from observer

Set your observer location to see the next 7 days of passes ≥ 10°. The values pass through the URL so the page stays shareable.

No JS? Fill the form by hand. The geolocation button needs JavaScript.

§ Radio — SatNOGS DB

ModeDescriptionDownlinkUplink
BPSK S-band telemetry 2.235 GHz

1 transmitter · refreshed weekly from db.satnogs.org